CAPE
1936 2366 2248 1752 1695 1430 998 804 763 573 733 1023 593 1020 913 1065 1281 1378 1336 943 567 346 340 263 235 223 321 494 653 849 1025 1159 1234 1234 1189 1129 1287 1446
1711 1929 2085 1874 1968 1851 1549 1182 789 621 691 766 765 631 721 851 1038 1206 1398 1083 798 448 366 315 304 322 315 499 557 541 426 445 523 540 570 604 508 373
2227 1960 1964 2006 1695 1899 1801 1428 1036 605 446 666 1077 1195 1152 1321 698 1130 1271 1371 1231 607 425 308 267 289 381 488 583 616 582 408 299 231 146 154 116 49
2026 2197 2065 1554 2257 2153 2083 1953 1560 1040 816 1547 1407 1335 1708 1414 838 1018 620 688 556 360 440 296 422 555 533 549 583 615 520 484 495 459 415 329 212 116
1963 2075 1773 1883 2196 1880 2300 1902 1832 1705 1654 1347 1446 1496 1543 1491 1421 1629 1788 1584 1821 1544 1241 997 632 665 686 808 796 746 830 812 700 662 595 419 317 261
1824 1874 1795 1792 2262 2265 2104 2090 2160 1935 1862 1758 1509 1473 1642 1749 1638 2525 2319 2520 2475 1767 1266 1221 1065 922 906 952 978 908 836 829 865 730 643 544 456 428
1664 1702 1722 1613 1404 1883 1975 2236 2117 2871 2349 1717 1655 1586 1636 1548 1609 1562 1646 3204 3613 2224 2073 1789 2097 2010 1837 1052 934 888 920 692 542 528 617 595 573 509
1567 1539 1762 1087 1022 822 758 954 1652 2804 2757 2342 1468 1552 1949 1934 1572 1609 1640 2358 2423 2088 2246 1683 2082 2004 1776 1899 1392 867 651 601 543 521 502 461 398 303
1629 1676 1513 1073 852 1436 931 908 712 649 935 2895 2436 2180 2428 2772 2168 1997 1935 1796 1479 1670 2339 1606 2016 1764 1825 1260 618 361 345 293 275 246 183 134 118 144
1374 1377 1530 1503 1557 1483 1830 1753 1730 1689 1229 1206 1705 1814 2273 2998 3132 2938 2746 2343 2013 1743 1806 1376 1084 1242 829 1385 258 176 156 125 100 87 94 120 164 137
941 951 974 1248 1014 766 1647 1367 1840 1680 1083 1032 1089 1221 1369 1194 1655 3271 1774 2092 1531 1524 1567 1233 721 924 830 1238 418 268 231 208 155 75 83 84 49 21
965 694 491 566 430 722 1121 2086 2189 1498 1992 1857 1154 641 623 688 681 1113 3014 2069 1418 1394 1716 1670 1026 1497 1453 1024 273 234 239 238 224 105 73 57 10 0
569 949 1147 517 147 263 617 1022 1894 2019 1646 2260 2885 2809 2244 1820 1524 735 1793 2648 1592 1646 1288 2320 1132 1738 1545 1030 318 154 132 107 59 30 22 4 0 0
513 841 1144 670 512 350 299 480 454 503 1048 1361 1474 1374 1401 1631 1593 1499 1486 1833 1829 2617 2424 2040 996 1194 1344 1292 1173 249 227 89 58 12 14 12 0 0
312 523 556 578 707 742 688 75 212 210 287 316 1100 1448 1326 1339 2077 2382 2334 1922 2020 2108 2266 2373 1754 2251 1847 1560 1176 879 223 150 70 12 2 1 0 0
88 435 394 510 569 615 222 138 326 94 141 116 392 1079 1278 1249 1448 1896 2004 1869 1236 1314 1679 2072 2061 2341 2253 1487 1328 1106 518 637 18 0 2 1 0 0
181 333 234 288 349 432 252 8 115 140 3 24 28 236 1272 1746 1500 1531 1712 1816 994 1049 1075 528 728 1057 1420 1620 1079 1097 768 362 12 38 0 0 0 0
35 74 79 83 514 431 221 28 0 0 3 22 76 38 106 535 1343 1923 2029 1637 1055 1084 1118 856 297 441 563 549 437 552 596 444 167 5 0 1 0 0
4 21 74 139 268 547 393 271 233 118 264 78 69 59 200 214 557 1192 1248 1154 987 1005 1213 906 332 198 121 118 450 220 1098 222 6 0 0 0 0 0
1 44 46 121 105 181 696 602 484 307 224 237 207 136 92 283 539 621 745 649 1067 736 1082 1211 298 123 320 466 627 139 21 4 0 0 0 0 0 0
8 27 85 165 103 149 308 486 407 254 238 255 277 309 188 360 253 364 599 942 645 990 913 615 372 169 342 361 344 51 40 27 59 0 0 0 0 0
117 192 206 295 208 396 179 119 147 261 276 206 132 201 242 149 103 150 465 621 712 953 1230 875 689 215 158 243 273 273 63 31 46 0 0 0 0 0
45 157 400 307 212 201 463 81 125 176 84 98 440 432 354 218 249 31 172 400 676 680 1500 1069 293 181 140 252 247 391 278 18 3 0 0 0 0 0
CIN
-0 -0 -0 -0 -0 -13 -28 -25 -11 -2 -5 -17 -23 -56 -49 -43 -44 -40 -42 -59 -93 -85 -48 -52 -53 -42 -118 -113 -97 -57 -31 -13 -8 -9 -10 -12 -5 -0
-0 -0 -0 -0 -0 -1 -10 -12 -28 -15 -2 -21 -18 -41 -62 -56 -58 -60 -33 -68 -105 -113 -71 -60 -63 -25 -29 -19 -19 -29 -39 -114 -91 -78 -68 -59 -70 -105
-0 -1 -0 -3 -0 -0 -0 -5 -12 -29 -16 -16 -27 -23 -57 -55 -58 -62 -48 -36 -39 -128 -139 -115 -67 -64 -56 -21 -20 -29 -37 -58 -76 -92 -143 -189 -195 -241
-0 -0 -0 -0 -0 -0 -0 -0 -2 -19 -14 -10 -2 -10 -24 -38 -68 -58 -77 -37 -51 -110 -189 -53 -27 -84 -72 -36 -28 -40 -58 -33 -36 -49 -50 -56 -82 -95
-3 -5 -1 -0 -0 -0 -0 -0 -0 -0 -1 -2 -0 -5 -12 -24 -41 -36 -24 -27 -16 -40 -75 -68 -48 -36 -31 -26 -35 -44 -27 -28 -36 -32 -37 -52 -63 -69
-6 -6 -5 -0 -0 -0 -0 -0 -0 -0 -0 -0 -0 -0 -0 -2 -26 -4 -3 -9 -7 -6 -39 -22 -58 -64 -44 -45 -43 -52 -50 -45 -39 -52 -51 -47 -35 -37
-11 -7 -5 -19 -23 -14 -0 -0 -0 -0 -0 -0 -0 -0 -0 -0 -0 -0 -5 -0 -4 -2 -0 -0 -10 -15 -21 -80 -73 -64 -62 -62 -42 -38 -42 -52 -51 -55
-8 -12 -10 -36 -44 -65 -45 -11 -10 -0 -0 -0 -0 -0 -0 -0 -0 -0 -3 -4 -0 -12 -11 -0 -1 -0 -3 -4 -30 -58 -62 -56 -55 -51 -34 -27 -22 -37
-0 -0 -5 -0 -19 -13 -33 -26 -19 -33 -33 -2 -0 -0 -0 -0 -1 -0 -0 -19 -2 -0 -13 -0 -5 -3 -0 -9 -71 -141 -156 -156 -115 -98 -94 -105 -103 -85
-0 -1 -0 -3 -5 -4 -6 -0 -5 -7 -33 -23 -2 -0 -0 -0 -3 -1 -0 -0 -0 -0 -2 -0 -0 -14 -16 -19 -123 -130 -141 -134 -140 -136 -125 -108 -84 -85
-12 -22 -22 -20 -59 -66 -0 -0 -0 -0 -4 -46 -44 -22 -38 -27 -33 -0 -0 -0 -0 -0 -0 -0 -4 -9 -13 -7 -115 -101 -105 -105 -106 -117 -125 -107 -126 -136
-2 -32 -55 -82 -132 -65 -22 -0 -0 -0 -0 -0 -45 -41 -40 -88 -42 -40 -0 -0 -0 -0 -0 -0 -0 -0 -0 -19 -100 -101 -110 -101 -89 -99 -118 -107 -51 -0
-0 -0 -1 -68 -85 -132 -24 -29 -1 -1 -1 -0 -0 -0 -0 -3 -15 -37 -11 -0 -0 -0 -2 -1 -0 -0 -0 -1 -60 -80 -83 -105 -128 -127 -123 -97 -0 -0
-0 -0 -1 -53 -84 -110 -138 -123 -52 -20 -7 -3 -0 -0 -0 -0 -0 -2 -25 -8 -0 -0 -0 -11 -0 -0 -0 -0 -0 -69 -50 -101 -115 -143 -117 -102 -0 -0
-0 -0 -7 -15 -13 -0 -8 -28 -48 -37 -33 -50 -17 -4 -3 -0 -0 -0 -0 -6 -4 -0 -0 -0 -0 -0 -0 -0 -0 -0 -30 -55 -97 -114 -6 -3 -0 -0
-124 -0 -0 -0 -1 -0 -15 -34 -7 -50 -58 -53 -5 -0 -3 -0 -0 -0 -0 -0 -12 -16 -10 -1 -0 -0 -0 -0 -0 -0 -4 -0 -105 -4 -2 -0 -0 -0
-42 -8 -7 -0 -0 -1 -42 -31 -77 -45 -0 -101 -71 -26 -0 -2 -0 -0 -0 -0 -19 -22 -25 -80 -27 -9 -0 -0 -0 -0 -0 -0 -22 -55 -0 -0 -0 -0
-207 -124 -89 -45 -0 -0 -41 -211 -0 -0 -29 -21 -55 -42 -25 -2 -0 -0 -1 -0 -11 -23 -2 -36 -76 -28 -11 -7 -11 -4 -0 -0 -2 -16 -0 -0 -0 -0
-8 -142 -43 -14 -7 -0 -13 -30 -34 -63 -19 -68 -19 -10 -26 -8 -0 -0 -0 -0 -1 -8 -2 -16 -88 -46 -42 -60 -16 -50 -0 -5 -0 -0 -0 -0 -0 -0
-117 -55 -42 -39 -54 -57 -2 -0 -7 -7 -5 -3 -3 -6 -12 -5 -0 -0 -1 -0 -0 -7 -1 -1 -77 -114 -51 -47 -1 -0 -31 -3 -0 -0 -0 -0 -0 -0
-15 -48 -21 -35 -68 -55 -41 -5 -6 -11 -9 -3 -0 -1 -11 -6 -1 -0 -0 -0 -0 -0 -0 -20 -111 -45 -36 -5 -0 -40 -62 -17 -6 -0 -0 -0 -0 -0
-5 -3 -17 -15 -36 -34 -58 -81 -71 -23 -10 -2 -14 -0 -8 -9 -12 -3 -0 -0 -0 -0 -0 -3 -23 -46 -42 -13 -4 -2 -18 -43 -11 -0 -0 -0 -0 -0
-18 -11 -8 -34 -47 -45 -28 -89 -35 -50 -98 -74 -0 -3 -0 -2 -1 -48 -4 -0 -0 -2 -0 -0 -32 -43 -47 -31 -4 -0 -0 -41 -25 -0 -0 -0 -0 -0
Wind_Speed
11 12 10 12 12 10 9 10 12 11 11 14 18 15 13 12 8 7 5 6 6 3 3 3 5 5 3 0 1 1 1 2 2 2 3 4 5 5
13 13 14 13 13 13 12 12 13 12 13 17 21 21 17 17 14 10 8 11 11 8 6 6 5 4 3 3 2 1 3 4 4 4 5 6 7 8
12 13 12 14 14 16 16 15 14 14 11 9 17 20 19 17 18 17 16 13 14 12 9 8 8 7 5 4 3 3 4 5 6 7 7 8 10 nan
9 11 12 16 15 15 16 16 15 16 15 7 11 11 14 20 21 23 20 17 17 18 13 10 11 10 9 8 8 6 6 8 10 11 11 12 13 15
10 13 14 15 17 19 19 19 19 17 18 14 13 13 17 19 22 20 25 23 21 23 20 17 13 12 12 10 10 9 9 10 11 13 12 13 14 15
12 11 13 16 16 21 19 19 19 17 16 18 17 15 14 17 15 16 20 24 22 22 21 22 22 18 13 13 14 13 14 14 14 13 14 14 15 15
14 13 12 13 18 20 23 21 21 21 18 17 16 18 18 16 14 15 18 27 28 26 25 25 24 23 23 22 19 18 18 19 18 18 18 18 20 21
24 23 17 20 18 21 21 22 23 22 20 19 18 16 18 19 17 17 21 23 31 30 28 23 26 26 26 26 32 28 26 22 20 21 23 26 26 26
29 26 26 22 24 23 25 25 23 22 20 22 18 19 20 20 20 18 20 22 19 33 30 26 29 23 24 31 34 28 24 22 21 26 30 33 34 33
32 32 29 29 27 26 28 29 25 23 20 21 20 21 22 25 22 21 19 17 19 25 27 27 30 22 23 23 29 29 27 27 32 nan nan 39 38 36
42 41 41 36 37 33 30 28 30 26 29 24 24 27 28 30 25 26 20 21 18 18 21 15 19 21 21 20 29 32 31 32 34 nan nan nan nan nan
42 45 42 39 52 48 37 34 30 26 30 29 31 26 28 30 31 21 24 20 20 23 24 22 23 27 23 28 27 30 32 36 38 37 nan nan nan nan
43 40 39 35 40 51 57 39 33 37 34 32 30 32 29 32 30 26 22 26 23 21 31 29 25 25 23 28 31 30 30 35 nan nan nan nan nan nan
38 40 40 45 47 48 49 58 40 42 37 35 30 29 26 28 31 29 27 25 27 24 29 28 24 24 24 22 24 34 31 nan nan nan nan nan nan nan
37 39 44 47 46 44 38 nan 44 51 34 34 31 30 29 30 34 35 32 30 28 25 27 28 25 26 27 26 26 31 35 32 nan nan nan nan nan nan
nan 39 45 48 46 39 42 39 36 nan 31 39 39 35 35 34 32 36 37 39 38 33 30 29 28 27 28 27 28 31 33 34 nan nan nan nan nan nan
32 39 44 43 40 37 35 nan 34 35 nan nan nan 40 42 40 34 36 34 40 38 37 36 38 37 34 32 29 31 30 35 34 nan nan nan nan nan nan
nan nan nan nan 33 33 34 nan nan nan nan nan nan nan 40 41 41 41 40 39 35 33 35 42 44 43 41 34 32 34 34 34 36 nan nan nan nan nan
nan nan nan 33 34 35 35 32 34 35 35 nan nan nan 39 40 42 43 41 41 34 30 32 43 43 39 37 30 36 32 30 37 nan nan nan nan nan nan
nan nan nan 33 35 38 34 33 35 33 31 31 35 37 nan 44 42 43 44 39 34 32 31 39 37 33 33 29 27 29 nan nan nan nan nan nan nan nan
nan nan nan 35 36 38 36 36 35 33 29 30 30 37 40 42 38 42 45 40 36 36 32 32 30 36 33 34 29 nan nan nan nan nan nan nan nan nan
33 32 31 33 35 36 34 39 38 37 34 33 28 36 41 40 35 40 43 40 34 29 29 34 40 39 34 32 28 28 nan nan nan nan nan nan nan nan
nan 28 30 32 32 33 32 nan 35 35 nan nan 35 33 37 40 37 nan 41 40 35 36 34 39 42 39 34 32 29 29 29 nan nan nan nan nan nan nan
Wind_Direction
292 287 271 260 265 267 272 259 258 251 267 263 231 247 240 247 238 237 224 249 294 265 237 202 194 175 177 141 111 116 28 355 333 299 252 245 269 288
279 283 284 272 265 264 259 261 270 253 262 266 235 223 237 245 247 247 229 234 258 253 251 247 241 227 193 204 217 325 334 328 317 296 274 291 303 312
267 264 275 282 271 273 271 270 272 277 275 289 215 223 223 235 240 241 244 221 229 261 247 248 252 254 252 253 246 251 278 293 294 294 285 297 312 nan
257 257 259 263 277 278 275 274 275 280 270 246 242 241 233 235 242 240 238 229 232 255 261 257 257 265 268 259 251 254 277 302 317 316 294 290 312 318
281 267 263 255 261 265 277 278 274 270 278 264 239 263 251 248 258 256 235 234 228 244 261 263 267 268 266 268 275 269 290 308 311 322 311 301 300 305
288 280 268 254 262 259 259 270 274 271 269 273 261 254 262 266 271 253 227 228 231 242 241 243 270 280 273 276 278 288 297 301 300 301 306 310 313 308
284 289 271 285 264 255 254 262 265 271 259 265 265 258 259 268 280 260 241 235 231 235 238 251 260 263 268 270 261 286 295 299 300 305 311 308 301 302
276 281 269 260 257 257 261 249 252 261 262 256 261 262 254 265 267 275 264 261 243 247 243 251 257 259 252 261 261 263 281 288 295 302 299 300 301 305
274 276 267 259 261 254 260 251 248 256 262 257 258 263 260 256 260 278 276 267 240 245 245 250 262 259 258 266 257 258 269 278 286 293 296 296 298 297
271 264 260 256 249 247 254 254 246 243 249 256 265 261 269 267 265 260 260 254 234 243 253 257 254 253 259 263 259 261 266 276 284 nan nan 294 296 297
271 270 263 264 259 254 246 245 243 232 245 253 251 257 261 258 257 255 258 247 243 243 254 247 248 254 261 269 271 269 264 276 283 nan nan nan nan nan
267 273 281 277 270 263 249 244 245 247 245 240 247 247 257 258 257 252 252 258 243 242 255 250 252 260 263 267 271 276 277 276 279 285 nan nan nan nan
268 269 276 289 279 279 279 244 238 236 246 242 243 246 250 257 254 256 249 257 255 256 258 263 256 262 257 260 272 280 283 284 nan nan nan nan nan nan
270 263 268 283 285 283 277 272 251 228 232 248 243 240 245 251 253 254 255 250 251 257 254 271 259 263 263 263 266 277 282 nan nan nan nan nan nan nan
263 264 270 279 278 274 271 nan 294 278 254 237 250 242 241 240 241 251 251 251 247 250 258 269 263 264 271 270 267 276 278 282 nan nan nan nan nan nan
nan 262 264 265 265 264 271 277 271 nan 273 267 239 238 236 239 246 245 248 254 251 251 254 260 264 264 265 270 269 276 280 280 nan nan nan nan nan nan
270 265 264 261 259 259 263 nan 267 268 nan nan nan 244 232 234 239 245 246 251 251 255 256 259 260 257 260 263 269 272 276 278 nan nan nan nan nan nan
nan nan nan nan 262 263 263 nan nan nan nan nan nan nan 239 240 239 235 242 248 251 252 255 261 261 259 259 262 273 269 272 275 275 nan nan nan nan nan
nan nan nan 262 258 258 256 256 256 257 261 nan nan nan 252 239 241 244 243 245 246 247 257 262 266 265 265 269 265 285 269 270 nan nan nan nan nan nan
nan nan nan 260 257 257 252 254 253 259 257 255 246 230 nan 238 240 244 247 248 249 246 251 260 264 271 277 272 269 276 nan nan nan nan nan nan nan nan
nan nan nan 257 256 254 247 242 244 245 247 245 253 227 235 226 250 238 244 249 252 251 252 264 267 259 264 262 273 nan nan nan nan nan nan nan nan nan
264 259 251 247 249 249 247 246 246 247 250 250 250 236 224 231 236 236 239 243 248 250 251 250 257 260 265 276 279 279 nan nan nan nan nan nan nan nan
nan 248 247 243 241 241 243 nan 248 250 nan nan 243 243 232 223 228 nan 234 239 241 246 247 254 255 259 266 270 274 275 281 nan nan nan nan nan nan nan